User: anonymous   Login
Location: Columbia
(38.9520°N, 92.3340°W)
Time: 23:02:01
(UTC-05:00)
Language:

SL-08 RB Rocket - Orbit

View from above orbital plane
View from above orbital plane
View from above satellite
View from above satellite

Ground track
Ground track

The orbit data is extracted from the following two-line orbital elements,

1 26387U 00033D   16119.80651911  .00000140  00000-0  32786-4 0  9996
2 26387  98.0212 187.3914 0025921 210.6930 262.0524 14.68136218847070
Epoch (UTC): 28 April 2016 19:21:23
Eccentricity: 0.0025921
inclination: 98.0212°
perigee height: 649 km
apogee height: 685 km
right ascension of ascending node: 187.3914°
argument of perigee: 210.6930°
revolutions per day: 14.68136218
mean anomaly at epoch: 262.0524°
orbit number at epoch: 84707

The dashed part of the orbit path shows where the satellite is in the earth's shadow,  

DLR